Zurück zum Katalog

SL-12 R/B(2)

AktivHEO
NORAD 11926·ROCKET BODY·🇷🇺 Russia

Gestartet Dec 19, 1978 von Baikonur Cosmodrome

Loading…

Nächste Überflüge (nächste 24 Stunden)

TLE

AktuellSource: Space-Track

Epoche: Sep 13, 2026, 20:47 UTC

1 11926U 78118C   26256.86642250 -.00000011  00000-0  00000+0 0  9990
2 11926  12.7053 145.4632 2985646  15.3951 156.2714  1.01602189172473

Verfolge SL-12 R/B(2) in Echtzeit mit AllMySat

Download on the App Store